Regional Weather Roundup
Issued by NWS Sterling, VA

Home | Current Version | Previous Version | Text Only | Print | Product List | Glossary Off
Versions: 1 2 3 4 5 6 7 8 9 10 11 12 13 14 15 16 17 18 19 20 21 22 23 24 25 26 27 28 29 30 31 32 33 34 35 36 37 38 39 40 41 42 43 44 45 46 47 48 49 50

000
ASUS41 KLWX 010010
RWRLWX

REGIONAL WEATHER ROUNDUP
NATIONAL WEATHER SERVICE BALTIMORE MD/WASHINGTON DC
800 PM EDT SUN AUG 31 2014

Note: "FAIR" indicates few or no clouds below 12,000 feet
with no significant weather and/or obstructions to visibility.
 TC=TEMPERATURE CELSIUS

 * =Non NWS site. Station does not report precipitation (e.g. rain,
    snow, etc.), thunder, or fog.

DCZ001-MDZ009-015-VAZ040>042-051-053>054-010100-
WASHINGTON METRO

CITY           SKY/WX    TMP DP  RH WIND       PRES   REMARKS
WASHINGTON NAT TSTM      79  70  74 CALM      30.04R
DULLES         CLOUDY    73  72  96 S9        30.03R
ANDREWS AFB    TSTM      79  70  73 NW9       30.03R
QUANTICO       MOCLDY    81  70  69 NW10      30.04R THUNDER
LEESBURG*      CLOUDY    73  73 100 CALM      30.05R
GAITHERSBURG*  CLOUDY    73  70  88 CALM      30.07R

$$

MDZ006>007-011-014-010100-
BALTIMORE METRO

CITY           SKY/WX    TMP DP  RH WIND       PRES   REMARKS
BWI AIRPORT    LGT RAIN  75  73  93 CALM      30.01F
MD SCIENCE CTR   N/A     76  73  91 MISG      30.03R
MARTIN STATE   LGT RAIN  79  75  89 S3        30.03R
ANNAPOLIS      MOCLDY    77  71  82 NW3       30.02R
FORT MEADE*    CLOUDY    72  70  94 CALM      30.04F

$$

MDZ012-015-019>023-010100-
MARYLAND EASTERN SHORE

CITY           SKY/WX    TMP DP  RH WIND       PRES   REMARKS
OCEAN CITY     CLEAR     79  73  82 SW12      30.05S
SALISBURY      CLEAR     81  72  74 S7        30.04R
BAY BRIDGE AP*   N/A     82  72  69 SW7       30.01R
EASTON*        MOCLDY    84  73  70 S8        30.05R HX  91

$$

MDZ017>025-010100-
SOUTHERN MARYLAND

CITY           SKY/WX    TMP DP  RH WIND       PRES   REMARKS
PATUXENT RIVER CLEAR     81  72  74 S6        30.01S
ST INIGOES     CLEAR     81  73  76 SE8       30.01S
LEONARDTOWN*   NOT AVBL

$$

MDZ003>005-010100-
NORTH CENTRAL MARYLAND

CITY           SKY/WX    TMP DP  RH WIND       PRES   REMARKS
FREDERICK*     NOT AVBL
HAGERSTOWN APT CLOUDY    80  70  71 S6        30.02S
WESTMINSTER*   CLOUDY    77  72  83 CALM      30.04S

$$

MDZ501>502-010100-
WESTERN MARYLAND

CITY           SKY/WX    TMP DP  RH WIND       PRES   REMARKS
OAKLAND*       CLOUDY    64 N/A N/A SW9G17    30.15R
CUMBERLAND*    CLOUDY    81  64  57 SW6       30.08R

$$

VAZ025>031-010100-
SHENANDOAH VALLEY

CITY           SKY/WX    TMP DP  RH WIND       PRES   REMARKS
WINCHESTER*    RAIN      77  70  78 CALM      30.04R
STAUNTON*      CLOUDY    75  68  78 S8        30.10R

$$

WVZ021-048>050-054>055-010100-
EASTERN WEST VIRGINIA PANHANDLE

CITY           SKY/WX    TMP DP  RH WIND       PRES   REMARKS
MARTINSBURG    LGT RAIN  77  69  76 S5        30.03R
PETERSBURG*    NOT AVBL

$$

VAZ036>039-050-010100-
CENTRAL FOOTHILLS

CITY           SKY/WX    TMP DP  RH WIND       PRES   REMARKS
CHARLOTTESVILL MOCLDY    76  71  85 CALM      30.04R
ORANGE*        MOCLDY    82  72  69 CALM      30.04R THUNDER

$$

VAZ055>057-010100-
NORTH AND CENTRAL PIEDMONT

CITY           SKY/WX    TMP DP  RH WIND       PRES   REMARKS
FREDERICKSBRG* PTCLDY    86  71  61 SW7       30.01R HX  91
STAFFORD*      MOCLDY    80  70  70 N9        30.07R

$$

NCZ024-NYZ072-PAZ021-071-VAZ022-071-010100-
OTHER REGIONAL OBSERVATIONS

CITY           SKY/WX    TMP DP  RH WIND       PRES   REMARKS
NEW YORK CITY  CLOUDY    76  73  91 VRB3      30.02R
PHILADELPHIA   TSTM      74  71  91 CALM      30.02R
PITTSBURGH     LGT RAIN  73  69  87 S6        30.03R
ROANOKE        MOCLDY    82  67  60 CALM      30.11R
RICHMOND       PTCLDY    83  70  64 S5        30.04R
RALEIGH        MOCLDY    82  71  69 CALM      30.07S

$$

ANZ530>537-010100-
MARINE OBSERVATIONS

STATION/POSITION TIME  TEMP    WIND        PRES
                       AIR SEA DIR/SP/G
                 (UTC) (F)     (DEG/KT/KT) (MB)
THOMAS PT LIGHT  0000   80 79  340/ 11/ 12 1017.5R
BALT KEY BRIDGE  0000          190/  7/ 10 1016.0F
COVE POINT       0000   80     190/ 15/ 17 1016.2R
LEWISETTA        0000   82 78  190/  7/  7 1016.3R
SOLOMONS ISLAND  0000      80                N/A
PINEY POINT      0000          210/  7/  8   N/A

$$



USA.gov is the U.S. government's official web portal to all federal, state and local government web resources and services.